Regional Weather Roundup
Issued by NWS State College, PA

Home | Current Version | Previous Version | Text Only | Print | Product List | Glossary On
Versions: 1 2 3 4 5 6 7 8 9 10 11 12 13 14 15 16 17 18 19 20 21 22 23 24 25 26 27 28 29 30 31 32 33 34 35 36 37 38 39 40 41 42 43 44 45 46 47 48 49 50
000
ASUS41 KCTP 180110
RWRCTP
PHLRWRCTP ALL

REGIONAL WEATHER ROUNDUP
NATIONAL WEATHER SERVICE STATE COLLEGE PA
800 PM EST WED JAN 17 2018

Note: "fair" indicates few or no clouds below 12,000 feet with no
significant weather and/or obstructions to visibility.

* = STATION THAT DOES NOT REPORT PRECIPITATION /E.G. RAIN...SNOW...ETC/
    THUNDER OR FOG.

PAZ002>004-007>009-013>016-020>023-029>032-180200-
WESTERN PENNSYLVANIA

CITY           SKY/WX    TMP DP  RH WIND       PRES   REMARKS
ERIE           FAIR      15   7  70 S16       30.29F WCI  -1
MEADVILLE      FAIR       9   5  84 SW10      30.27F WCI  -5
FRANKLIN*      LGT SNOW   6   4  91 SW9       30.28F FOG     WCI  -8
NEW CASTLE     FAIR       7   3  84 SW6       30.35F WCI  -3
BEAVER COUNTY  CLEAR      7   3  85 SW6       30.34F WCI  -3
BUTLER*        FAIR       6   4  91 SW6       30.34F WCI  -4
PITTSBURGH INT FAIR       9   3  77 SW8       30.35F WCI  -3
PITTSBURGH     FAIR       8   1  73 SW10      30.35F WCI  -6
INDIANA*       CLOUDY    10   7  85 W5        30.35F WCI   2
LATROBE        MOCLDY     9   5  85 SW9       30.38S WCI  -5
WASHINGTON CO* FAIR       6   0  76 S5        30.41S WCI  -3
$$

PAZ004>006-010>012-017>019-024>028-033>037-041-042-045-046-049>053-180200-
CENTRAL PENNSYLVANIA

CITY           SKY/WX    TMP DP  RH WIND       PRES   REMARKS
BRADFORD       FAIR       9   5  84 VRB5      30.17F WCI   1
DUBOIS         FAIR       6   2  83 W9        30.24F WCI  -8
CLEARFIELD     FAIR      11   5  77 W8        30.26F WCI  -1
JOHNSTOWN      CLOUDY     8   4  83 W14       30.20F WCI  -8
ALTOONA        CLOUDY    11   4  73 W8        30.26F WCI  -1
STATE COLLEGE  PTCLDY    12   5  73 W12       30.27F WCI  -2
WILLIAMSPORT   FAIR      18   9  68 W12       30.26F WCI   5
SELINSGROVE    FAIR      34   7  32 NW7       30.28F
FT INDIANTOWN  FAIR      17   7  63 W3        30.26S
CAPITAL CITY   FAIR      19   7  59 W8        30.29S WCI   9
HARRISBURG     FAIR      19   8  62 NW10      30.28F WCI   7
YORK           FAIR       8   2  76 W3        30.27F
$$

PAZ038>040-043-044-047-048-054-055-060>062-067>071-180200-
EASTERN PENNSYLVANIA

CITY           SKY/WX    TMP DP  RH WIND       PRES   REMARKS
SCRANTON       FAIR      13   7  77 SW3       30.20F
MOUNT POCONO   FAIR       9   5  84 NW10      30.08F WCI  -5
ALLENTOWN      FAIR      19   6  57 NW5       30.24S WCI  12
QUAKERTOWN*    FAIR      19   9  63 MISG      30.23S
READING        FAIR      16  10  77 W7        30.26R WCI   6
LANCASTER      FAIR      13   6  74 NW7       30.26F WCI   3
COATESVILLE    FAIR      18   9  68 NW10G16   30.22F WCI   6
POTTSTOWN      FAIR      17   7  64 NW3       30.26S
BLUE BELL      FAIR      21  10  63 NW5       30.25F WCI  15
DOYLESTOWN     FAIR      20   8  60 NW10G18   30.21F WCI   9
WILLOW GROVE   NOT AVBL
NORTH PHILA    FAIR      25  11  55 NW14      30.24F WCI  13
PHILADELPHIA   CLOUDY    25  10  53 NW14G23   30.25F WCI  13
$$




USA.gov is the U.S. government's official web portal to all federal, state and local government web resources and services.